Weather in Fontvieille

Monaco     43°43′41″N   7°25′00″E
temp.,
°C
wind,
m/s
gust,
m/s
humid.,
%
clouds,
%
prec.,
mm/h
press.,
hPa
HPBL,
m
14 april, wed
wed1423:00+13wnw3362100 0.0 1021385
02:00+12e226697 0.1 1021302
05:00+12ene346186 0.1 1021415
08:00+11e5567100 0.3 1022742
11:00+11e557569 0.6 1022704
14:00+10e6577100 1.2 1022773
17:00+10ene346898 0.2 1020548
20:00+11n3365100 0.3 1020525
15 april, thu
thu1523:00+10n336397 0.0 1020382
02:00+10n2259100 0.1 1020882
05:00+9n336699 0.1 1019728
08:00+10ne335893 0.1 1019576
11:00+11ese436177 0.0 1020615
14:00+10ese536514 0.2 1020485
17:00+11ese426168 0.2 1018757
20:00+10nne117098 0.6 1018296
16 april, fri
fri1623:00+11nw225998 0.0 1018348
02:00+10ne225142 0.0 1018255
05:00+9n43528 0.0 1017222
08:00+10n324959 0.0 1017255
11:00+11se22415 0.0 1017455
14:00+13ese654751 0.0 1015735
17:00+15e554744 0.0 1013614
20:00+14ne44515 0.0 1014585
17 april, sat
sat1723:00+12n55505 0.0 1015194
02:00+11n555093 0.0 1014185
05:00+11nnw555064 0.0 1013181
08:00+11nnw444786 0.0 1013180
11:00+14sse22375 0.0 1013307
14:00+14wsw4349100 0.0 1013611
17:00+15s2253100 0.0 1012413
20:00+14wsw6660100 0.2 1013649
18 april, sun
sun1823:00+13wsw2358100 0.1 1014484
02:00+12n3249100 0.1 1014124
05:00+12nnw2246100 0.0 1014124
08:00+12ese5567100 0.0 1015763
11:00+12se546986 0.3 1017842
14:00+11wsw1169100 0.6 1017454
17:00+12sw4368100 0.2 1016345
20:00+13wsw3367100 0.3 1016262